User: anonymous   Login
Location: Unspecified
(0.0000°N, 0.0000°E)
Time: 03:35:26
(UTC+00:00)
Language:

DNEPR OBJECT AF - Orbit

View from above orbital plane
View from above orbital plane
View from above satellite
View from above satellite

Ground track
Ground track

The orbit data is extracted from the following two-line orbital elements,

1 39445U 13066AF  17173.81191600 +.00000261 +00000-0 +39137-4 0  9992
2 39445 097.6315 216.7917 0057072 248.2821 111.2311 14.81323015192009
Epoch (UTC): 22 June 2017 19:29:09
Eccentricity: 0.0057072
inclination: 97.6315°
perigee height: 585 km
apogee height: 665 km
right ascension of ascending node: 216.7917°
argument of perigee: 248.2821°
revolutions per day: 14.81323015
mean anomaly at epoch: 111.2311°
orbit number at epoch: 19200

The dashed part of the orbit path shows where the satellite is in the earth's shadow,  

DLR